カタログに戻る

STARLINK-1357

運用中通信VLEO
NORAD 45565·PAYLOAD·🇺🇸 United States

打ち上げ Apr 22, 2020 から Cape Canaveral Space Force Station

Loading…

次のパス (今後24時間)

TLE

最新Source: CelesTrak SupGP

元期: Sep 14, 2026, 21:21 UTC

1 45565C 20025AL  26257.89006944  .00086871  00000+0  38787-3 0  2578
2 45565  53.0355 182.4123 0007284  96.7901 192.9454 15.83442924    19

AllMySatでSTARLINK-1357をリアルタイム追跡

Download on the App Store